Weather reports worldwide

Advertisment
Barth, Germany (10180): temperature & dewpoint: 07.12.2018 10:00:00 - 13.12.2018 10:00:00 (CET)Barth, Germany (10180): temperature 5cm & temperature -5cm: 07.12.2018 10:00:00 - 13.12.2018 10:00:00 (CET)Barth, Germany (10180): temperature -20cm & temperature -100cm: 07.12.2018 10:00:00 - 13.12.2018 10:00:00 (CET)Barth, Germany (10180): wind speed & gusts: 07.12.2018 10:00:00 - 13.12.2018 10:00:00 (CET)Barth, Germany (10180): wind direction: 07.12.2018 10:00:00 - 13.12.2018 10:00:00 (CET)Barth, Germany (10180): reduced air pressure: 07.12.2018 10:00:00 - 13.12.2018 10:00:00 (CET)Barth, Germany (10180): visibility: 07.12.2018 10:00:00 - 13.12.2018 10:00:00 (CET)Barth, Germany (10180): sunshine duration: 07.12.2018 10:00:00 - 13.12.2018 10:00:00 (CET)Barth, Germany (10180): precipitation: 07.12.2018 10:00:00 - 13.12.2018 10:00:00 (CET)
Date & Time tt [°C] td [°C] tt 5cm [°C] tt -5cm [°C] tt -20cm [°C] tt -100cm [°C] ff [km/h] ff [kn] fx [km/h] fx [kn] dd ppp [hPa] vv [km] sd [min] rr [mm]
13.12.2018 10:00:00 2,9 0,9 2,8 2,5 3,7 7,9 12 7 18 10 ENE 1026,7 62 5 0,0
13.12.2018 09:00:00 2,3 0,9 1,6 2,6 3,7 7,9 10 5 23 12 ENE 1026,5 70 0 0,1
13.12.2018 08:00:00 2,4 1,3 1,8 2,5 3,7 7,9 9 5 14 8 NE 1026,6 56 0 0,0
13.12.2018 07:00:00 2,8 1,4 2,2 2,5 3,8 7,9 11 6 16 9 NE 1026,3 10 0 0,0
13.12.2018 06:00:00 2,6 1,3 2,0 2,2 3,8 7,9 7 4 16 9 N 1026,8 10 0 0,0
13.12.2018 05:00:00 2,3 0,6 0,7 2,5 3,9 7,9 10 6 19 10 NNE 1027,1 70 0 0,3
13.12.2018 04:00:00 2,2 0,7 1,7 2,3 4,0 7,9 8 5 22 12 NE 1027,6 8 0 0,2
13.12.2018 03:00:00 1,8 0,4 1,2 2,1 4,1 7,9 9 5 16 9 NE 1028,1 48 0 0,2
13.12.2018 02:00:00 0,0 -1,2 -0,3 2,0 4,3 7,9 5 3 8 5 NNW 1028,2 15 0 0,1
13.12.2018 01:00:00 1,5 -0,4 -0,1 2,6 4,4 7,9 6 4 23 13 NE 1028,4 70 0 0,0
13.12.2018 00:00:00 3,1 -0,7 2,7 3,2 4,5 7,9 15 8 25 13 ENE 1028,7 70 0 0,0
12.12.2018 23:00:00 3,1 -0,2 2,8 3,4 4,6 7,9 13 7 26 14 NE 1028,9 70 0 0,0
12.12.2018 22:00:00 3,4 0,1 3,0 3,5 4,6 7,9 17 9 29 16 NE 1028,7 70 0 0,0
12.12.2018 21:00:00 3,7 0,7 3,2 3,6 4,7 7,9 17 9 32 17 NE 1028,5 70 0 0,0
12.12.2018 20:00:00 4,2 1,3 3,6 3,7 4,7 7,9 22 12 36 19 NE 1028,3 70 0 0,0
12.12.2018 19:00:00 3,9 1,8 3,0 3,6 4,8 7,9 16 9 29 16 ENE 1028,1 70 0 0,0
12.12.2018 18:00:00 3,3 1,9 2,5 3,9 4,9 7,9 7 4 18 10 NE 1027,9 22 0 0,0
12.12.2018 17:00:00 3,3 1,8 2,7 4,2 4,9 7,9 12 6 28 15 ENE 1027,8 70 0 0,4
12.12.2018 16:00:00 4,5 2,4 3,8 4,5 4,9 7,9 13 7 28 15 NE 1027,4 8 0 0,4
12.12.2018 15:00:00 4,4 2,0 4,0 5,0 4,9 8,0 18 10 31 17 ENE 1027,2 4,2 0 0,0
12.12.2018 14:00:00 5,7 1,5 5,7 5,3 4,7 8,0 16 9 28 15 NE 1026,7 70 13 0,0
12.12.2018 13:00:00 5,7 1,9 5,8 4,9 4,6 8,0 16 8 28 15 NE 1026,7 70 0 0,0
12.12.2018 12:00:00 5,2 2,5 5,0 4,5 4,5 8,0 16 8 28 15 NNE 1026,8 70 0 0,0
12.12.2018 11:00:00 4,6 1,7 4,6 4,0 4,5 8,0 22 12 34 18 NNE 1026,7 70 4 0,0
12.12.2018 10:00:00 4,6 1,7 3,9 3,7 4,5 8,0 16 9 28 15 NNE 1026,3 65 0 0,0
12.12.2018 09:00:00 4,7 1,2 4,1 3,9 4,5 8,0 16 9 29 16 NNE 1025,8 69 0 0,0
12.12.2018 08:00:00 4,8 1,4 4,3 3,9 4,5 8,0 16 9 28 15 NE 1025,4 56 0 0,0
12.12.2018 07:00:00 4,8 2,0 4,3 4,0 4,5 8,0 17 9 30 16 NNE 1024,7 45 0 0,0
12.12.2018 06:00:00 5,1 2,3 4,5 4,0 4,5 8,0 17 9 29 16 NNE 1024,2 48 0 0,0
12.12.2018 05:00:00 5,0 2,3 4,0 3,9 4,4 8,0 16 8 35 19 NE 1023,8 29 0 0,0
12.12.2018 04:00:00 5,2 2,3 4,0 3,8 4,4 8,0 18 10 29 16 NNE 1023,3 24 0 0,1
12.12.2018 03:00:00 4,9 2,8 4,0 3,6 4,4 8,0 13 7 28 15 NNE 1023,0 26 0 0,3
12.12.2018 02:00:00 4,9 2,1 4,2 3,2 4,5 8,0 14 8 26 14 N 1022,4 70 0 0,0
12.12.2018 01:00:00 4,4 1,5 2,5 3,4 4,5 8,0 13 7 26 14 N 1021,9 70 0 0,0
12.12.2018 00:00:00 4,8 1,1 3,4 3,5 4,5 8,0 13 7 24 13 N 1021,7 70 0 0,2
11.12.2018 23:00:00 4,5 1,0 3,2 3,5 4,6 8,0 16 8 29 15 N 1021,2 12 0 0,0
11.12.2018 22:00:00 4,7 1,0 3,4 3,3 4,6 8,0 15 8 26 14 NNE 1020,7 70 0 0,0
11.12.2018 21:00:00 4,2 1,0 2,6 3,6 4,7 8,0 14 7 34 18 NNE 1020,1 70 0 0,1
11.12.2018 20:00:00 4,1 1,0 2,6 3,7 4,7 8,0 13 7 33 18 N 1019,6 70 0 0,3
11.12.2018 19:00:00 5,1 0,4 4,1 3,9 4,8 8,0 15 8 28 15 NNE 1018,9 44 0 0,0
11.12.2018 18:00:00 5,3 0,8 4,7 4,1 4,8 8,0 16 9 34 19 NNE 1018,1 70 0 0,0
11.12.2018 17:00:00 5,2 1,3 4,6 4,1 4,8 8,0 16 9 32 17 N 1017,5 70 0 0,0
11.12.2018 16:00:00 5,3 1,3 4,8 4,2 4,8 8,0 18 10 34 19 N 1016,8 70 0 0,0
11.12.2018 15:00:00 5,2 0,6 4,7 4,2 4,8 8,0 21 11 35 19 N 1016,2 70 0 0,0
11.12.2018 14:00:00 5,2 1,1 4,8 4,4 4,8 8,0 18 10 34 19 N 1015,7 70 0 0,0
11.12.2018 13:00:00 5,2 1,1 5,0 4,4 4,7 8,0 21 11 35 19 N 1014,9 70 0 0,0
11.12.2018 12:00:00 5,1 1,0 4,9 4,3 4,7 8,0 18 10 41 22 N 1014,5 70 0 0,0
11.12.2018 11:00:00 5,2 2,1 4,8 4,2 4,7 8,0 18 10 33 18 NNW 1014,1 70 0 0,0
11.12.2018 10:00:00 4,9 1,8 4,6 4,1 4,6 8,0 19 11 37 20 NNW 1013,4 70 0 0,0
11.12.2018 09:00:00 5,0 1,9 4,4 3,9 4,6 8,0 19 10 39 21 NNW 1012,6 29 0 0,0
11.12.2018 08:00:00 4,7 2,0 3,9 3,9 4,6 8,0 21 12 42 23 NNW 1012,0 51 0 0,0
11.12.2018 07:00:00 4,9 1,5 4,0 3,8 4,6 8,1 22 12 43 23 NNW 1011,2 70 0 0,0
11.12.2018 06:00:00 4,6 1,2 3,4 3,7 4,7 8,1 24 13 45 24 NNW 1010,2 44 0 0,2
11.12.2018 05:00:00 4,7 0,7 3,7 3,6 4,7 8,1 27 14 48 26 NNW 1009,3 70 0 0,0
11.12.2018 04:00:00 4,7 0,9 3,5 3,9 4,7 8,1 29 15 50 27 NNW 1008,5 70 0 0,1
11.12.2018 03:00:00 5,3 1,7 4,2 4,0 4,7 8,1 31 17 50 27 NW 1007,7 70 0 0,0
11.12.2018 02:00:00 5,2 1,5 4,0 3,9 4,7 8,1 25 14 50 27 NW 1007,1 47 0 0,5
11.12.2018 01:00:00 5,2 1,0 4,1 3,8 4,7 8,1 30 16 49 26 WNW 1006,9 9 0 0,0
11.12.2018 00:00:00 5,3 0,9 4,5 3,8 4,7 8,1 26 14 48 26 WNW 1006,8 60 0 0,0
10.12.2018 23:00:00 5,3 1,0 4,5 3,7 4,7 8,1 24 13 41 22 W 1006,7 62 0 0,0
10.12.2018 22:00:00 5,3 1,2 4,4 3,6 4,7 8,1 26 14 42 23 W 1006,8 48 0 0,0
10.12.2018 21:00:00 4,9 1,0 3,8 3,5 4,8 8,1 21 11 38 21 W 1006,6 57 0 0,0
10.12.2018 20:00:00 4,9 1,0 3,6 3,5 4,9 8,1 23 12 37 20 WNW 1006,3 53 0 0,0
10.12.2018 19:00:00 5,1 1,1 3,8 3,6 4,9 8,1 21 12 36 20 WNW 1005,9 51 0 0,0
10.12.2018 18:00:00 5,1 1,3 3,7 3,6 5,0 8,1 22 12 35 19 WNW 1005,6 51 0 0,0
10.12.2018 17:00:00 5,1 1,3 3,6 3,9 5,1 8,1 23 12 54 29 WNW 1005,1 58 0 0,0
10.12.2018 16:00:00 5,5 1,8 4,3 4,4 5,1 8,1 29 15 45 24 W 1005,1 41 0 0,0
10.12.2018 15:00:00 5,6 1,8 5,1 4,6 5,1 8,1 29 16 49 27 W 1005,1 43 0 0,0
10.12.2018 14:00:00 5,8 1,2 5,5 4,6 5,0 8,1 31 17 53 29 W 1005,2 37 1 0,0
10.12.2018 13:00:00 6,2 1,5 5,7 4,6 5,0 8,0 29 16 51 28 W 1005,2 40 0 0,0
10.12.2018 12:00:00 5,9 1,1 5,5 4,5 4,9 8,0 33 18 51 27 WNW 1005,3 54 0 0,0
10.12.2018 11:00:00 5,7 1,1 5,3 4,2 4,9 8,0 31 17 54 29 WNW 1005,2 47 0 0,0
10.12.2018 10:00:00 5,8 0,7 5,2 4,0 4,9 8,0 35 19 60 33 WNW 1004,6 48 0 0,0
10.12.2018 09:00:00 5,7 0,6 5,0 3,8 4,9 8,0 34 19 58 32 WNW 1004,1 51 0 0,0
10.12.2018 08:00:00 5,7 0,9 4,9 3,5 5,0 8,0 31 17 56 31 WNW 1003,5 52 0 0,0
10.12.2018 07:00:00 5,4 0,5 3,9 3,4 5,0 8,0 33 18 59 32 WNW 1002,9 35 0 0,0
10.12.2018 06:00:00 5,8 0,9 4,7 3,7 5,1 8,0 33 18 54 29 WNW 1002,5 40 0 0,0
10.12.2018 05:00:00 5,4 0,9 4,0 3,5 5,2 8,0 29 16 47 25 WNW 1001,9 49 0 0,0
10.12.2018 04:00:00 5,6 0,8 4,5 3,5 5,3 8,0 28 15 45 24 WNW 1001,2 46 0 0,0
10.12.2018 03:00:00 5,2 0,6 3,3 3,6 5,5 8,0 33 18 51 28 WNW 1000,6 42 0 0,0
10.12.2018 02:00:00 5,1 0,9 3,2 3,9 5,6 8,0 26 14 49 27 WNW 999,9 39 0 0,0
10.12.2018 01:00:00 5,7 2,3 4,0 4,3 5,7 8,0 26 14 36 20 W 999,1 60 0 0,0
10.12.2018 00:00:00 5,2 1,4 3,8 3,9 5,9 8,0 20 11 38 21 WNW 998,8 70 0 0,0
09.12.2018 23:00:00 4,9 0,7 3,0 4,3 6,1 8,0 27 15 48 26 NW 997,7 70 0 0,0
09.12.2018 22:00:00 5,0 0,6 2,6 5,1 6,2 8,0 29 16 49 26 NW 996,2 70 0 0,0
09.12.2018 21:00:00 6,2 3,8 5,3 5,8 6,3 8,0 25 14 49 27 NW 994,3 57 0 0,2
09.12.2018 20:00:00 6,4 3,8 5,4 5,8 6,3 8,0 28 15 57 31 WNW 992,6 52 0 0,0
09.12.2018 19:00:00 6,7 4,3 5,6 6,0 6,3 8,0 29 15 48 26 W 991,2 33 0 0,2
09.12.2018 18:00:00 6,9 4,4 5,7 6,1 6,4 8,0 30 16 51 27 W 990,3 44 0 0,0
09.12.2018 17:00:00 6,9 4,9 6,0 6,2 6,4 8,0 27 14 44 24 W 989,7 53 0 0,2
09.12.2018 16:00:00 7,0 5,1 6,2 6,3 6,4 8,0 25 14 43 23 WSW 989,0 15 0 0,1
09.12.2018 15:00:00 7,4 4,9 7,0 6,4 6,3 8,0 24 13 43 23 WSW 988,7 57 3 0,0
09.12.2018 14:00:00 7,3 4,9 7,1 6,7 6,3 8,0 27 14 46 25 WSW 988,3 70 1 0,0
09.12.2018 13:00:00 7,3 5,2 6,9 6,7 6,2 8,0 27 15 50 27 W 987,6 35 0 0,0
09.12.2018 12:00:00 7,5 4,9 7,2 6,4 6,1 8,0 31 17 47 25 WSW 987,1 55 0 0,0
09.12.2018 11:00:00 7,1 4,6 7,0 6,0 6,1 8,0 25 13 39 21 WSW 986,8 65 0 0,0
09.12.2018 10:00:00 6,7 4,5 6,2 5,9 6,1 8,0 25 13 42 23 WSW 986,3 70 0 0,0
09.12.2018 09:00:00 6,6 4,8 6,2 5,7 6,1 8,0 27 15 43 23 WSW 985,5 46 0 0,0
09.12.2018 08:00:00 6,5 5,1 5,8 5,8 6,1 7,9 24 13 38 21 W 984,7 34 0 0,0
09.12.2018 07:00:00 6,3 5,2 5,9 5,6 6,1 7,9 16 9 24 13 WSW 984,2 27 0 0,1
09.12.2018 06:00:00 5,4 4,8 4,9 5,6 6,1 7,9 6 3 8 5 SW 983,4 8 0 0,0
09.12.2018 05:00:00 5,8 5,0 5,4 5,8 6,1 7,9 4 2 10 5 ESE 983,1 5 0 0,5
09.12.2018 04:00:00 5,9 5,0 5,6 5,7 6,2 7,9 9 5 14 8 SE 983,7 4,1 0 1,2
09.12.2018 03:00:00 5,9 4,8 5,4 5,6 6,2 7,9 11 6 38 21 SSE 984,8 6 0 1,0
09.12.2018 02:00:00 6,9 3,9 6,2 5,6 6,3 7,9 30 16 42 23 SSW 985,7 31 0 0,0
09.12.2018 01:00:00 6,7 3,7 5,9 5,5 6,4 7,9 24 13 40 22 SSW 986,9 41 0 0,0
09.12.2018 00:00:00 6,8 3,6 5,8 5,6 6,5 7,9 27 15 44 24 SW 988,2 49 0 0,0
08.12.2018 23:00:00 7,2 4,1 5,7 6,3 6,5 7,9 30 16 53 29 SW 988,6 48 0 0,2
08.12.2018 22:00:00 7,5 5,1 6,4 6,5 6,5 7,9 27 15 44 24 SW 989,5 23 0 0,3
08.12.2018 21:00:00 7,5 5,4 6,6 6,5 6,4 7,9 26 14 55 30 SW 989,9 28 0 0,7
08.12.2018 20:00:00 7,5 5,8 6,7 6,5 6,4 7,9 28 15 55 30 SW 990,2 12 0 0,4
08.12.2018 19:00:00 7,9 5,4 6,8 6,4 6,4 7,9 31 17 48 26 SW 990,3 57 0 0,4
08.12.2018 18:00:00 7,5 5,4 6,7 6,3 6,4 7,9 37 20 53 29 SW 990,6 11 0 0,0
08.12.2018 17:00:00 7,4 5,0 6,9 6,3 6,4 7,8 35 19 53 29 SSW 990,9 34 0 0,0
08.12.2018 16:00:00 7,7 4,3 7,2 6,3 6,4 7,8 35 19 51 28 SSW 991,4 70 0 0,0
08.12.2018 15:00:00 7,3 4,7 6,9 6,3 6,4 7,8 32 17 49 26 SW 991,8 55 0 0,0
08.12.2018 14:00:00 6,9 4,5 6,7 6,2 6,3 7,8 33 18 51 27 SSW 992,1 39 0 0,0
08.12.2018 13:00:00 7,1 3,8 6,8 6,1 6,3 7,8 32 17 50 27 SSW 992,8 44 0 0,0
08.12.2018 12:00:00 6,9 3,6 6,6 6,0 6,3 7,8 32 17 54 29 SW 993,5 43 0 0,0
08.12.2018 11:00:00 6,7 3,5 6,4 5,8 6,4 7,8 32 18 51 28 SW 994,1 39 0 0,1
08.12.2018 10:00:00 5,7 3,5 4,8 5,5 6,5 7,8 30 16 48 26 SSW 994,6 12 0 1,4
08.12.2018 09:00:00 6,1 2,6 5,3 5,5 6,6 7,8 28 15 43 23 SW 995,7 29 0 0,0
08.12.2018 08:00:00 6,2 2,3 5,6 5,5 6,8 7,8 27 14 40 22 SW 996,0 43 0 0,0
08.12.2018 07:00:00 6,1 2,4 5,7 5,5 7,0 7,8 25 13 44 24 SW 996,0 42 0 0,0
08.12.2018 06:00:00 6,3 2,7 5,7 6,0 7,1 7,8 32 17 48 26 WSW 996,0 43 0 0,0
08.12.2018 05:00:00 6,5 3,2 5,4 6,3 7,3 7,8 32 17 54 29 WSW 995,7 35 0 0,0
08.12.2018 04:00:00 6,9 4,0 6,1 6,7 7,5 7,8 31 17 50 27 WSW 995,4 35 0 0,0
08.12.2018 03:00:00 6,9 4,1 5,9 7,1 7,7 7,8 34 18 56 31 WSW 994,7 41 0 0,1
08.12.2018 02:00:00 7,0 5,0 6,2 7,6 7,8 7,8 33 18 57 31 W 993,8 20 0 0,9
08.12.2018 01:00:00 7,4 6,0 6,9 8,3 7,8 7,8 38 20 72 39 W 992,5 5 0 0,3
08.12.2018 00:00:00 10,1 8,5 9,3 8,8 7,8 7,8 23 13 35 19 SSW 990,9 23 0 0,5
07.12.2018 23:00:00 10,1 8,8 9,5 8,9 7,8 7,8 21 12 37 20 SSW 991,5 26 0 0,1
07.12.2018 22:00:00 10,4 9,2 9,8 8,9 7,7 7,8 20 11 34 18 SSW 992,2 14 0 0,0
07.12.2018 21:00:00 10,7 9,3 10,2 8,9 7,7 7,8 19 11 32 17 SSW 993,0 24 0 0,0
07.12.2018 20:00:00 10,6 9,4 10,0 9,0 7,6 7,8 20 11 31 17 SSW 994,1 25 0 0,1
07.12.2018 19:00:00 10,8 9,6 10,2 9,0 7,6 7,8 22 12 31 17 SSW 995,3 13 0 0,2
07.12.2018 18:00:00 10,6 9,7 10,1 9,0 7,5 7,8 19 11 29 16 SSW 996,0 36 0 0,6
07.12.2018 17:00:00 10,6 9,7 10,1 9,0 7,4 7,8 16 9 26 14 SSW 997,0 55 0 0,3
07.12.2018 16:00:00 10,7 9,9 10,2 9,1 7,3 7,8 16 9 26 14 SSW 998,2 4,6 0 1,4
07.12.2018 15:00:00 10,9 9,9 10,4 9,1 7,2 7,8 17 9 27 15 SSW 999,0 6 0 0,7
07.12.2018 14:00:00 11,0 10,0 10,6 9,1 7,0 7,8 16 9 27 15 SSW 1000,2 20 0 0,2
07.12.2018 13:00:00 11,1 10,1 10,7 9,0 6,9 7,8 17 9 26 14 SSW 1001,5 6 0 0,0
07.12.2018 12:00:00 11,0 10,1 10,7 8,8 6,7 7,8 16 9 23 12 SW 1002,6 7 0 0,2
07.12.2018 11:00:00 10,6 9,9 10,3 8,5 6,6 7,8 12 6 19 11 SSW 1003,7 2,1 0 0,1
07.12.2018 10:00:00 10,5 9,7 10,2 8,3 6,4 7,8 13 7 28 15 SW 1004,3 8 0 0,0

tt = temperature
td = dewpoint
tt 5cm = temperature 5cm
tt -5cm = temperature -5cm
tt -20cm = temperature -20cm
tt -100cm = temperature -100cm
ff = wind speed
fx = gusts
dd = wind direction
ppp = reduced air pressure
vv = visibility
sd = sunshine duration
rr = precipitation

Next stations